Tracking 35048 objects as of 19-Aug-2026
HD Live streaming from Space Station
objects crossing your sky now

SELENE

Track SELENE now!
10-day predictions
SELENE is classified as:


NORAD ID: 69020
Int'l Code: 2026-100AS
Launch date: May 3, 2026
Source: Greece (GREC)
Launch site: AIR FORCE WESTERN TEST RANGE (AFWTR)

Uplink (MHz):
Downlink (MHz): 2255.000
Beacon (MHz):
Mode: 50k_FSK
Call sign:
Status: Unknown

Your satellite tracking list
Your tracking list is empty




NASA's NSSDC Master Catalog

Two Line Element Set (TLE):
1 69020U 26100AS  26231.16965802  .00005482  00000-0  25417-3 0  9998
2 69020  97.3948 127.7613 0005758 110.7370 249.4483 15.20455201 16376
Source of the keplerian elements: AFSPC